Wind_Speed
4 5 5 6 8 11 13 14 20 19 17 14 11 15 15 11 12 8 7 10 10 3 0 2 2 3 4 4 4 3 4 4 5 6 6 6 6 5 4 3 3 2 1 1 2 4 5 7 8
8 4 4 9 9 10 21 10 20 16 14 14 13 13 12 17 12 14 6 8 6 2 3 3 3 3 4 5 5 5 5 5 5 6 6 6 6 5 5 4 2 1 1 2 4 5 6 8 10
11 7 3 17 10 10 22 13 16 13 13 5 12 10 7 14 8 10 5 8 3 5 6 4 3 3 5 6 6 6 7 7 7 7 7 6 5 5 4 4 3 2 3 5 7 9 11 12 13
11 3 2 9 8 14 13 8 8 11 14 14 8 8 9 9 7 6 6 7 5 3 4 2 2 3 6 7 9 8 9 9 8 8 8 7 6 6 5 5 5 5 6 8 9 10 11 11 11
11 4 14 9 13 9 5 2 2 4 19 16 13 12 9 7 8 7 7 10 8 6 3 2 4 5 7 8 9 11 10 10 10 8 8 8 8 8 8 8 8 8 9 10 11 12 12 13 14
5 5 6 9 13 8 4 3 4 6 13 18 12 8 8 7 6 9 10 10 10 8 6 4 5 7 9 10 10 11 11 11 10 9 8 9 11 11 11 10 10 10 11 13 14 15 16 16 17
6 12 15 13 12 8 3 5 11 7 16 15 7 4 6 6 6 7 7 7 10 6 5 5 10 7 10 12 12 13 10 10 11 10 10 11 13 13 13 13 13 14 15 17 18 19 20 21 22
5 6 5 7 9 11 2 2 10 12 8 10 4 3 8 6 7 6 9 4 4 4 4 9 8 11 14 15 14 14 12 12 13 12 12 13 15 16 17 18 17 18 19 20 22 24 24 25 27
6 9 10 11 13 7 4 3 4 6 5 8 7 10 7 11 6 5 4 4 4 7 8 11 11 14 13 9 10 10 13 14 15 15 14 15 18 19 20 22 21 23 24 25 26 27 28 29 32
6 6 9 7 4 5 5 3 6 4 5 7 9 10 13 15 5 12 9 3 6 9 11 12 12 11 11 10 11 14 16 16 20 15 16 15 16 20 19 26 25 27 28 29 30 30 31 34 31
4 8 4 8 8 8 10 10 6 9 6 11 9 13 12 11 9 10 10 9 9 11 12 14 15 11 7 14 14 14 16 19 20 15 19 17 21 18 23 23 31 31 34 30 32 34 35 37 35
6 8 7 7 5 5 6 8 12 13 10 8 9 13 13 9 8 12 13 12 15 14 15 15 13 13 11 10 14 15 18 19 20 20 22 23 24 16 21 19 20 25 21 34 27 40 43 37 36
6 7 8 6 7 10 9 12 11 11 9 7 8 12 11 13 14 15 16 18 16 15 15 12 13 13 12 13 16 17 15 18 21 25 28 25 29 29 33 33 33 34 38 39 43 42 40 41 38
5 7 8 8 8 8 4 7 7 9 9 9 10 13 15 18 19 20 19 17 16 11 12 13 12 14 14 16 18 17 17 21 26 28 31 28 28 31 33 35 37 38 41 45 46 44 37 30 30
7 7 10 8 5 5 5 10 9 8 11 9 12 17 21 22 23 21 16 12 11 11 12 13 14 18 21 24 24 24 25 26 28 32 33 30 35 35 39 37 39 40 37 37 36 39 38 36 32
8 9 13 9 5 6 6 4 13 10 11 11 13 17 18 19 17 13 11 8 7 8 12 15 20 25 26 27 26 28 30 32 32 32 32 33 32 32 34 34 36 43 40 36 36 33 34 22 30
10 4 3 6 3 3 5 8 8 7 5 15 16 18 18 13 10 7 5 5 9 13 17 21 25 28 27 28 29 31 33 32 30 29 31 34 35 33 35 39 37 37 35 30 35 32 24 31 27
9 8 3 6 6 1 2 2 4 3 10 9 15 13 8 5 5 7 9 12 15 17 19 22 25 26 30 32 32 33 33 32 34 38 33 29 31 32 33 33 33 34 32 29 23 22 26 24 27
6 12 7 2 1 4 4 3 4 5 8 9 10 7 7 8 12 12 14 15 20 23 24 24 26 27 28 31 33 33 33 33 29 34 33 36 31 31 32 31 30 30 26 21 22 22 23 25 23
8 11 11 1 2 11 10 10 7 9 7 13 8 7 9 13 15 15 17 21 22 22 23 25 26 28 29 32 36 37 36 33 29 27 31 34 35 32 28 27 25 21 18 14 14 20 22 21 20
3 13 14 11 14 14 9 18 14 12 12 10 8 5 1 5 10 6 17 19 16 19 22 25 28 31 36 35 36 38 32 23 28 29 28 28 32 30 26 22 20 18 14 12 15 18 20 19 15
9 8 13 14 15 21 14 21 19 10 6 5 5 5 5 10 12 12 9 10 13 19 22 27 32 35 34 34 34 34 29 28 28 27 31 28 27 26 21 15 14 13 13 12 14 17 17 14 9
12 15 15 18 20 23 5 3 5 7 2 9 5 14 10 13 15 11 7 14 24 15 15 27 33 36 34 37 34 30 28 25 25 23 23 25 25 26 25 12 13 14 12 10 12 15 15 13 12
11 15 21 24 15 10 5 6 16 11 15 4 9 9 11 18 22 21 19 13 14 19 31 26 27 34 38 37 32 29 23 19 19 20 22 21 21 17 13 14 14 15 13 11 11 14 14 14 13
12 22 22 18 8 11 7 5 11 11 10 5 5 13 14 17 20 14 16 9 20 29 36 30 34 35 38 33 26 21 19 20 19 18 21 21 21 18 14 15 15 13 12 12 12 13 13 11 12
21 11 15 14 15 20 16 7 3 8 7 11 12 10 14 15 18 15 16 18 26 35 31 36 36 39 33 28 19 19 20 20 20 21 21 21 18 18 16 14 14 12 12 12 11 11 11 10 7
15 16 20 16 22 22 12 11 12 12 11 11 9 10 14 15 11 13 23 29 29 31 24 36 37 33 28 21 19 20 21 25 27 26 25 20 17 14 14 16 13 12 12 11 6 9 11 11 10
14 16 15 12 7 9 22 11 10 13 14 10 5 7 9 12 15 24 30 29 23 22 33 35 31 26 21 22 21 23 22 19 18 19 15 17 15 11 13 14 12 10 9 6 8 10 9 10 11
15 9 8 7 8 9 9 9 9 11 12 11 9 8 9 12 12 21 20 20 28 32 30 29 27 22 19 21 23 20 19 20 17 19 14 10 9 8 5 8 8 9 8 6 8 6 7 3 8
6 8 8 11 8 10 16 6 8 9 8 11 10 13 10 11 12 19 17 29 30 27 26 25 23 18 18 20 16 18 19 19 17 19 11 4 6 10 4 5 5 7 4 4 3 3 7 8 7
Wind_Direction
174 127 143 21 304 127 96 87 88 74 73 72 77 72 56 62 41 76 115 118 225 246 214 211 220 195 207 211 208 231 256 270 286 292 290 279 271 267 265 263 265 269 271 326 337 329 322 319 319
164 152 109 70 58 323 78 100 82 88 90 71 64 74 64 58 50 87 75 103 238 121 124 160 194 221 252 240 236 238 246 255 264 270 274 282 289 290 283 275 265 253 315 312 302 305 307 307 310
149 148 256 216 218 66 105 97 104 103 83 107 68 74 107 77 66 100 129 107 83 125 155 174 205 219 251 256 254 246 255 261 262 259 256 254 254 258 258 259 255 262 276 290 297 301 306 308 310
139 106 235 22 331 81 98 128 121 121 92 81 70 66 75 80 112 111 113 119 71 154 139 164 202 265 262 268 264 262 258 256 254 258 262 258 246 234 233 234 246 257 266 277 287 295 300 308 314
141 170 239 165 74 86 89 156 154 80 109 84 89 94 79 79 93 90 91 86 178 269 222 249 262 284 284 280 270 269 273 264 255 250 250 248 244 238 232 232 238 252 272 288 292 294 297 299 300
226 246 315 70 103 106 77 283 155 113 98 99 83 88 91 98 86 94 95 96 262 264 261 273 278 281 276 288 267 253 259 264 255 243 236 236 243 246 244 244 253 264 274 278 279 282 287 290 294
278 250 183 168 106 113 102 300 324 92 75 72 109 97 131 115 112 100 107 141 213 287 301 322 327 298 285 279 254 244 245 252 246 234 235 245 251 251 249 253 260 269 277 277 278 283 288 291 294
202 263 153 66 126 75 137 280 354 32 72 69 108 179 170 163 109 133 157 299 277 294 277 299 314 306 295 290 252 253 239 246 243 241 249 255 257 251 252 256 262 269 272 273 276 282 287 291 293
261 278 107 58 51 97 144 114 89 116 176 176 153 184 195 191 220 158 232 275 297 288 290 287 305 308 313 300 285 247 254 247 241 244 249 261 262 255 260 261 267 272 274 275 278 283 288 291 295
303 27 63 74 92 107 102 109 108 30 202 194 188 198 199 201 235 220 217 269 299 302 296 301 303 308 312 298 283 274 266 269 262 243 254 250 251 256 260 274 274 276 277 278 281 286 290 292 296
281 52 95 110 109 108 112 112 153 208 233 202 210 212 208 206 236 252 255 254 278 288 289 291 298 289 265 277 274 270 279 269 273 251 245 262 251 264 267 276 287 282 277 278 283 286 287 292 291
72 92 126 121 132 136 189 249 231 220 248 223 218 209 214 220 251 277 285 283 286 293 285 284 287 284 270 272 264 261 280 285 264 261 261 253 252 273 274 258 247 270 275 281 276 289 297 293 291
101 103 115 143 178 173 222 250 241 231 223 205 234 220 225 236 254 267 275 284 283 287 285 284 291 295 295 285 280 283 287 290 285 283 273 266 261 266 266 265 265 271 277 281 284 288 283 285 284
164 141 134 124 124 139 237 274 274 265 198 196 208 226 240 250 260 268 271 279 288 283 272 279 291 288 295 294 293 295 297 296 297 297 298 288 275 268 266 270 273 276 280 281 279 277 272 273 273
163 153 158 145 145 142 46 330 280 246 205 207 217 235 246 259 271 269 282 283 281 279 278 283 287 306 310 300 299 287 291 294 297 296 292 292 281 274 275 275 276 283 286 281 266 280 275 274 296
204 220 148 131 138 265 265 274 293 224 227 241 249 253 261 272 291 279 272 268 272 290 290 284 295 301 307 301 300 293 291 287 295 288 286 290 288 284 281 282 285 278 282 278 277 291 293 282 299
260 205 166 74 107 290 304 286 272 254 267 277 288 286 293 292 266 247 238 249 277 289 300 302 302 303 302 303 304 300 299 299 295 290 294 288 288 286 282 289 286 284 277 273 281 287 276 297 292
206 262 36 16 21 7 357 279 254 229 245 253 279 297 286 262 247 253 256 281 299 311 313 313 313 312 312 308 307 308 309 309 310 301 300 295 287 286 285 287 285 285 289 294 292 292 294 293 287
330 321 302 101 114 332 268 190 188 195 236 262 271 269 271 274 280 287 299 302 309 312 320 318 315 314 314 313 312 313 314 312 308 303 305 302 297 295 297 295 295 294 291 287 290 287 289 291 288
298 306 6 273 341 313 253 228 226 207 177 250 245 275 314 304 307 304 308 307 305 313 307 316 320 318 317 316 313 311 314 312 314 313 312 304 307 308 305 303 304 301 295 291 274 279 278 280 290
357 323 341 328 310 279 247 241 239 193 215 236 230 281 279 313 304 304 308 314 322 323 318 314 316 320 317 316 314 310 311 310 291 293 298 294 303 306 309 307 303 303 297 270 265 262 264 271 283
334 319 318 303 293 297 255 290 179 208 201 221 236 266 211 285 273 308 349 330 322 313 316 315 320 320 314 316 316 313 310 307 308 306 305 312 315 310 322 310 315 311 289 277 251 252 264 264 264
328 323 309 298 279 296 317 2 111 109 249 327 247 262 282 265 278 287 242 307 335 336 326 317 326 326 321 318 318 317 314 313 312 315 318 315 315 321 329 309 313 306 291 280 251 247 251 254 248
320 319 296 286 285 268 162 261 49 38 20 8 285 293 260 271 288 290 323 343 315 308 314 317 325 319 323 320 325 324 327 322 320 313 309 309 316 323 299 298 295 296 288 272 263 258 255 249 250
318 326 319 315 324 312 218 303 54 28 24 41 276 300 297 307 323 343 8 353 311 320 320 315 314 319 324 327 327 324 322 314 305 300 299 298 305 304 299 296 291 286 279 271 264 261 264 261 255
313 324 304 328 313 308 312 50 84 35 33 350 330 318 309 319 331 360 315 310 315 319 317 314 319 329 329 332 328 316 310 302 296 289 291 293 292 289 295 295 291 285 283 280 272 267 263 259 242
329 327 312 292 282 279 124 94 81 16 16 2 333 323 330 334 356 315 329 331 322 323 319 315 326 327 333 333 324 310 302 297 291 286 282 283 279 284 287 288 291 288 290 291 303 285 273 257 248
334 322 332 327 305 321 90 74 32 12 8 349 336 337 344 348 308 325 328 331 346 317 311 320 323 331 331 324 317 315 322 322 318 308 305 274 260 263 280 289 287 297 298 321 319 322 294 252 246
339 353 338 305 332 317 323 76 25 10 354 349 346 357 340 323 340 339 351 320 296 312 320 326 326 326 325 326 331 339 334 336 333 329 323 299 238 245 298 301 292 291 291 298 336 343 28 134 147
7 3 354 340 329 350 299 67 27 0 351 358 331 322 335 345 338 329 337 303 317 327 327 326 333 337 336 347 359 357 338 346 348 349 354 343 200 209 227 260 300 305 286 265 307 357 56 91 99
Height
3184 3183 3181 3181 3186 3181 3173 3179 3175 3179 3182 3183 3182 3183 3181 3181 3181 3188 3188 3186 3182 3183 3183 3183 3184 3184 3184 3185 3186 3186 3187 3187 3187 3188 3189 3189 3190 3190 3191 3191 3192 3191 3191 3191 3192 3192 3191 3191 3191
3184 3182 3183 3187 3187 3172 3178 3176 3177 3182 3183 3185 3185 3187 3187 3185 3185 3186 3188 3186 3183 3184 3184 3185 3184 3184 3185 3187 3186 3186 3186 3186 3186 3186 3187 3189 3190 3190 3191 3192 3192 3192 3192 3192 3192 3191 3191 3190 3190
3184 3183 3182 3186 3177 3175 3173 3177 3177 3181 3181 3181 3186 3187 3186 3187 3189 3188 3188 3190 3186 3185 3185 3185 3185 3186 3186 3186 3186 3186 3186 3186 3186 3186 3187 3188 3189 3189 3190 3191 3191 3191 3191 3192 3191 3191 3191 3191 3190
3184 3185 3184 3183 3177 3178 3177 3179 3181 3183 3182 3181 3187 3186 3188 3188 3190 3188 3188 3190 3189 3187 3186 3186 3186 3186 3186 3186 3186 3186 3186 3185 3186 3186 3188 3188 3188 3189 3190 3190 3191 3191 3191 3190 3190 3190 3190 3189 3189
3186 3185 3181 3181 3179 3181 3181 3183 3181 3179 3177 3179 3185 3189 3188 3189 3189 3188 3188 3192 3190 3189 3186 3186 3186 3186 3186 3186 3186 3185 3186 3186 3186 3186 3187 3188 3189 3189 3189 3190 3190 3190 3190 3189 3189 3189 3188 3187 3187
3188 3187 3184 3185 3181 3185 3184 3181 3185 3175 3179 3178 3187 3190 3191 3191 3192 3192 3195 3198 3189 3189 3187 3187 3186 3186 3186 3185 3184 3184 3184 3185 3186 3187 3188 3188 3189 3189 3190 3189 3190 3189 3188 3188 3188 3187 3187 3187 3186
3187 3185 3181 3181 3183 3187 3187 3179 3176 3176 3169 3180 3191 3192 3193 3193 3193 3195 3194 3194 3189 3186 3186 3187 3186 3186 3184 3184 3183 3183 3184 3185 3186 3187 3188 3188 3189 3189 3189 3188 3188 3188 3187 3187 3186 3185 3185 3184 3183
3188 3184 3182 3183 3187 3188 3191 3185 3181 3176 3175 3188 3194 3193 3193 3194 3195 3194 3193 3189 3189 3188 3189 3187 3186 3185 3182 3181 3181 3182 3182 3183 3185 3186 3187 3187 3187 3187 3187 3185 3185 3185 3184 3183 3182 3182 3182 3181 3180
3188 3186 3183 3185 3187 3192 3193 3191 3187 3185 3185 3188 3191 3192 3194 3194 3193 3194 3192 3190 3190 3188 3188 3186 3185 3184 3181 3180 3179 3179 3181 3182 3183 3184 3184 3185 3185 3185 3184 3183 3183 3182 3181 3180 3179 3178 3177 3176 3174
3191 3187 3189 3193 3194 3195 3195 3195 3194 3191 3189 3191 3191 3191 3192 3192 3192 3191 3189 3190 3189 3188 3186 3185 3184 3183 3181 3181 3180 3179 3179 3181 3182 3180 3182 3182 3182 3181 3180 3178 3179 3178 3177 3176 3175 3174 3172 3171 3172
3195 3193 3195 3197 3197 3196 3196 3197 3197 3193 3190 3190 3191 3191 3193 3192 3192 3192 3191 3189 3188 3186 3186 3183 3181 3181 3180 3179 3178 3177 3177 3176 3177 3177 3178 3179 3179 3179 3177 3177 3175 3173 3172 3170 3169 3168 3166 3167 3166
3197 3195 3197 3196 3195 3197 3193 3191 3190 3190 3190 3192 3191 3192 3192 3193 3193 3191 3191 3190 3185 3184 3182 3181 3180 3178 3178 3176 3175 3176 3174 3175 3174 3174 3171 3172 3173 3175 3173 3175 3174 3169 3164 3164 3166 3163 3162 3162 3161
3198 3196 3195 3194 3193 3193 3191 3189 3189 3189 3189 3191 3192 3193 3192 3192 3191 3190 3188 3187 3184 3181 3179 3179 3177 3176 3176 3175 3174 3174 3173 3171 3168 3168 3168 3168 3166 3167 3166 3166 3164 3164 3162 3161 3158 3158 3156 3155 3154
3196 3196 3194 3195 3194 3192 3190 3189 3189 3189 3188 3190 3191 3191 3190 3189 3189 3187 3186 3183 3181 3179 3178 3176 3175 3174 3173 3173 3171 3171 3170 3168 3166 3165 3164 3162 3162 3161 3160 3160 3158 3158 3156 3154 3151 3149 3147 3146 3146
3193 3194 3189 3190 3194 3192 3193 3190 3189 3188 3188 3188 3188 3188 3187 3186 3185 3183 3182 3181 3179 3177 3176 3175 3173 3172 3171 3170 3168 3168 3167 3164 3162 3160 3159 3156 3155 3154 3152 3151 3150 3150 3148 3146 3143 3142 3141 3140 3139
3196 3193 3182 3190 3192 3197 3195 3190 3189 3187 3186 3186 3186 3185 3183 3182 3182 3181 3180 3179 3178 3177 3175 3173 3171 3169 3168 3167 3165 3163 3161 3158 3157 3155 3152 3150 3149 3146 3144 3143 3142 3141 3140 3137 3136 3134 3134 3134 3133
3194 3192 3183 3187 3192 3196 3196 3191 3189 3188 3189 3185 3183 3182 3181 3181 3180 3180 3179 3178 3177 3175 3174 3171 3170 3167 3165 3163 3161 3158 3155 3153 3151 3148 3145 3143 3141 3139 3138 3136 3134 3133 3132 3131 3129 3129 3128 3127 3126
3194 3189 3188 3189 3194 3195 3193 3190 3188 3188 3187 3185 3182 3182 3181 3180 3180 3179 3179 3177 3176 3173 3171 3168 3166 3164 3160 3158 3156 3153 3150 3147 3142 3137 3137 3136 3133 3131 3130 3129 3127 3125 3124 3124 3122 3122 3121 3119 3119
3191 3188 3187 3190 3192 3194 3193 3191 3189 3187 3184 3184 3183 3182 3182 3181 3181 3179 3178 3176 3172 3171 3169 3166 3162 3160 3157 3154 3150 3148 3145 3141 3138 3131 3128 3124 3123 3122 3120 3120 3118 3117 3117 3117 3116 3116 3115 3113 3113
3192 3188 3186 3190 3189 3191 3190 3189 3184 3184 3187 3181 3181 3182 3182 3180 3179 3178 3176 3174 3173 3170 3167 3164 3160 3156 3153 3149 3145 3142 3139 3136 3131 3126 3123 3116 3115 3114 3113 3111 3110 3110 3110 3111 3111 3110 3109 3109 3109
3191 3191 3188 3189 3189 3186 3187 3183 3178 3179 3177 3178 3180 3182 3184 3182 3181 3178 3176 3173 3170 3167 3164 3162 3158 3154 3148 3146 3141 3136 3134 3131 3125 3122 3117 3114 3111 3107 3106 3105 3104 3104 3103 3104 3104 3103 3104 3104 3104
3193 3194 3192 3189 3188 3179 3177 3173 3169 3176 3181 3184 3182 3183 3183 3182 3180 3178 3175 3174 3170 3167 3164 3159 3154 3150 3145 3141 3137 3131 3127 3123 3119 3115 3111 3108 3104 3102 3102 3101 3100 3099 3098 3099 3098 3098 3098 3099 3100
3195 3193 3191 3186 3181 3177 3172 3178 3170 3181 3183 3184 3182 3182 3184 3181 3179 3177 3173 3171 3168 3166 3163 3157 3151 3146 3141 3137 3131 3126 3122 3118 3114 3111 3109 3105 3102 3098 3098 3097 3097 3096 3095 3094 3094 3093 3094 3095 3096
3195 3191 3185 3179 3177 3177 3175 3181 3182 3182 3183 3182 3182 3182 3181 3179 3176 3174 3172 3169 3167 3164 3160 3154 3149 3142 3136 3130 3125 3120 3117 3114 3111 3108 3105 3102 3100 3097 3096 3094 3093 3092 3091 3090 3090 3089 3090 3091 3093
3193 3189 3184 3172 3169 3168 3175 3173 3186 3186 3184 3183 3182 3181 3180 3179 3177 3174 3170 3168 3164 3160 3155 3150 3143 3137 3131 3126 3121 3118 3114 3110 3107 3104 3101 3098 3096 3094 3092 3090 3089 3088 3087 3087 3086 3086 3087 3088 3089
3193 3191 3185 3180 3178 3174 3167 3177 3184 3185 3183 3181 3180 3181 3179 3177 3175 3173 3169 3166 3162 3156 3150 3143 3138 3133 3127 3121 3117 3113 3110 3106 3102 3099 3096 3093 3092 3090 3088 3087 3086 3086 3085 3084 3084 3085 3085 3086 3086
3194 3190 3189 3186 3177 3167 3169 3185 3186 3185 3183 3183 3182 3179 3178 3175 3173 3171 3166 3162 3157 3151 3145 3137 3134 3129 3123 3118 3113 3109 3105 3100 3096 3093 3090 3089 3088 3086 3085 3084 3083 3083 3082 3081 3082 3082 3083 3083 3083
3194 3192 3188 3181 3176 3173 3172 3182 3188 3187 3185 3184 3183 3181 3179 3176 3171 3166 3162 3158 3153 3148 3139 3136 3131 3126 3120 3115 3110 3105 3100 3094 3090 3086 3083 3081 3082 3083 3082 3081 3080 3080 3080 3080 3080 3080 3079 3080 3081
3193 3190 3190 3188 3185 3179 3172 3187 3190 3190 3188 3187 3184 3182 3179 3175 3171 3166 3164 3160 3149 3144 3139 3132 3127 3123 3117 3112 3107 3101 3096 3091 3086 3081 3077 3076 3077 3079 3080 3079 3079 3079 3080 3080 3081 3081 3080 3079 3081
3195 3194 3192 3188 3187 3183 3180 3190 3190 3190 3188 3187 3183 3181 3177 3174 3170 3166 3163 3150 3146 3141 3134 3129 3124 3120 3115 3110 3106 3101 3094 3090 3085 3080 3074 3073 3074 3077 3078 3078 3078 3078 3078 3079 3081 3081 3081 3081 3082